METEOR-M 2

Last updated on Wed Dec 17 2025 00:02:25 GMT+0000 (Coordinated Universal Time)

1 40069U 14037A 25350.19762780 .00000333 00000+0 17165-3 0 9990 2 40069 98.4900 327.6499 0005135 198.8027 161.2962 14.21389002593329
UTC large
Height (km)
Speed (km/s)
/
Latitude / Longitude
Inclination (degrees)
Orbital Period (minutes)
Azimuth
Elevation
Range (km)
Doppler Factor

Next 0 passes for location: London (51.5072 / 0.1276)

Sorry there are no passes over London.